| time (UTC) | temp C | wind direction | speed KPH | gust KPH | rain 1hr cm | rain 24hr cm | rain mn cm | humidity % | barometer mb |
| 20260503181538 | 23 | 65 | 1.6 | 6.4 | 0.00 | 0.00 | 0.00 | 47 | 1014.9 |
| 20260503181009 | 23 | 110 | 1.6 | 8.0 | 0.00 | 0.00 | 0.00 | 44 | 1014.3 |
| 20260503180507 | 23 | 224 | 1.6 | 6.4 | 0.00 | 0.00 | 0.00 | 46 | 1014.3 |
| 20260503180046 | 23 | 207 | 1.6 | 6.4 | 0.00 | 0.00 | 0.00 | 49 | 1014.9 |
| 20260503180032 | 23 | 208 | 0.0 | 6.4 | 0.00 | 0.00 | 0.00 | 48 | 1014.4 |
| 20260503175515 | 23 | 321 | 3.2 | 6.4 | 0.00 | 0.00 | 0.00 | 47 | 1014.4 |
| 20260503175007 | 22 | 171 | 1.6 | 8.0 | 0.00 | 0.00 | 0.00 | 48 | 1014.5 |
| 20260503174541 | 22 | 172 | 0.0 | 8.0 | 0.00 | 0.00 | 0.00 | 51 | 1015.1 |
| 20260503174525 | 22 | 167 | 0.0 | 8.0 | 0.00 | 0.00 | 0.00 | 51 | 1014.5 |
| 20260503174011 | 22 | 172 | 1.6 | 6.4 | 0.00 | 0.00 | 0.00 | 50 | 1014.6 |
| 20260503173034 | 22 | 199 | 1.6 | 6.4 | 0.00 | 0.00 | 0.00 | 53 | 1015.3 |
| 20260503173029 | 22 | 193 | 3.2 | 6.4 | 0.00 | 0.00 | 0.00 | 52 | 1014.8 |
| 20260503172512 | 22 | 158 | 0.0 | 4.8 | 0.00 | 0.00 | 0.00 | 55 | 1014.8 |
| 20260503172005 | 21 | 167 | 1.6 | 6.4 | 0.00 | 0.00 | 0.00 | 53 | 1014.9 |
| 20260503171524 | 22 | 180 | 0.0 | 6.4 | 0.00 | 0.00 | 0.00 | 55 | 1015.4 |
| 20260503171005 | 22 | 205 | 0.0 | 3.2 | 0.00 | 0.00 | 0.00 | 53 | 1015.0 |
| 20260503170509 | 22 | 151 | 0.0 | 3.2 | 0.00 | 0.00 | 0.00 | 57 | 1015.0 |
| 20260503151008 | 14 | 199 | 0.0 | 3.2 | 0.00 | 0.00 | 0.00 | 79 | 1015.6 |
| 20260503150107 | 14 | 159 | 0.0 | 0.0 | 0.00 | 0.00 | 0.00 | 78 | 1016.1 |
| 20260503090507 | 11 | 18 | 0.0 | 0.0 | 0.00 | 0.00 | 0.00 | 88 | 1015.1 |
| 20260503081531 | 12 | 42 | 0.0 | 0.0 | 0.00 | 0.00 | 0.00 | 87 | 1015.6 |
| 20260503081528 | 12 | 42 | 0.0 | 0.0 | 0.00 | 0.00 | 0.00 | 86 | 1015.1 |
| 20260503081014 | 12 | 6 | 0.0 | 0.0 | 0.00 | 0.00 | 0.00 | 86 | 1015.1 |
| 20260503080507 | 12 | 6 | 0.0 | 0.0 | 0.00 | 0.00 | 0.00 | 85 | 1015.1 |
| 20260503072508 | 13 | 101 | 0.0 | 3.2 | 0.00 | 0.00 | 0.00 | 81 | 1015.0 |
| 20260503072013 | 13 | 49 | 0.0 | 3.2 | 0.00 | 0.00 | 0.00 | 80 | 1015.0 |
| 20260503071525 | 13 | 43 | 1.6 | 3.2 | 0.00 | 0.00 | 0.00 | 79 | 1015.0 |
| 20260503071500 | 13 | 43 | 1.6 | 3.2 | 0.00 | 0.00 | 0.00 | 80 | 1015.4 |
| 20260503071010 | 13 | 58 | 0.0 | 1.6 | 0.00 | 0.00 | 0.00 | 81 | 1015.0 |
| 20260503070508 | 13 | 59 | 0.0 | 0.0 | 0.00 | 0.00 | 0.00 | 81 | 1014.9 |
| 20260503070105 | 13 | 59 | 0.0 | 0.0 | 0.00 | 0.00 | 0.00 | 82 | 1015.3 |
| 20260503055007 | 15 | 49 | 0.0 | 0.0 | 0.00 | 0.00 | 0.00 | 75 | 1014.6 |
| 20260503054555 | 15 | 49 | 0.0 | 0.0 | 0.00 | 0.00 | 0.00 | 75 | 1014.9 |
| 20260503054519 | 15 | 49 | 0.0 | 0.0 | 0.00 | 0.00 | 0.00 | 74 | 1014.6 |
| 20260503053506 | 16 | 49 | 0.0 | 0.0 | 0.00 | 0.00 | 0.00 | 74 | 1014.5 |
| 20260503053056 | 16 | 49 | 0.0 | 1.6 | 0.00 | 0.00 | 0.00 | 73 | 1014.9 |
| 20260503053022 | 16 | 49 | 0.0 | 1.6 | 0.00 | 0.00 | 0.00 | 73 | 1014.6 |
| 20260503052507 | 16 | 49 | 0.0 | 1.6 | 0.00 | 0.00 | 0.00 | 71 | 1014.6 |
| 20260503051557 | 16 | 49 | 0.0 | 3.2 | 0.00 | 0.00 | 0.00 | 70 | 1014.8 |
| 20260503051007 | 16 | 47 | 1.6 | 3.2 | 0.00 | 0.00 | 0.00 | 68 | 1014.4 |
| 20260503050509 | 16 | 50 | 1.6 | 3.2 | 0.00 | 0.00 | 0.00 | 69 | 1014.4 |
| 20260503050056 | 17 | 50 | 1.6 | 3.2 | 0.00 | 0.00 | 0.00 | 69 | 1014.7 |
| 20260503050029 | 17 | 50 | 1.6 | 3.2 | 0.00 | 0.00 | 0.00 | 69 | 1014.4 |
| 20260503045511 | 17 | 51 | 0.0 | 0.0 | 0.00 | 0.00 | 0.00 | 70 | 1014.3 |
| 20260503045010 | 17 | 51 | 0.0 | 1.6 | 0.00 | 0.00 | 0.00 | 67 | 1014.3 |
| 20260503044607 | 17 | 60 | 0.0 | 1.6 | 0.00 | 0.00 | 0.00 | 68 | 1014.7 |
| 20260503044511 | 17 | 60 | 0.0 | 1.6 | 0.00 | 0.00 | 0.00 | 66 | 1014.3 |
| 20260503043057 | 18 | 60 | 0.0 | 3.2 | 0.00 | 0.00 | 0.00 | 64 | 1014.6 |
| 20260503043016 | 18 | 60 | 0.0 | 3.2 | 0.00 | 0.00 | 0.00 | 63 | 1014.2 |
| 20260503041553 | 18 | 44 | 0.0 | 0.0 | 0.00 | 0.00 | 0.00 | 61 | 1014.5 |
| 20260503040100 | 20 | 44 | 0.0 | 1.6 | 0.00 | 0.00 | 0.00 | 59 | 1014.3 |
| 20260503035510 | 20 | 290 | 0.0 | 0.0 | 0.00 | 0.00 | 0.00 | 53 | 1013.8 |
| 20260503035010 | 20 | 288 | 0.0 | 0.0 | 0.00 | 0.00 | 0.00 | 51 | 1013.7 |
| 20260503034559 | 21 | 288 | 0.0 | 0.0 | 0.00 | 0.00 | 0.00 | 50 | 1014.1 |
| 20260503034526 | 21 | 288 | 0.0 | 0.0 | 0.00 | 0.00 | 0.00 | 49 | 1013.7 |
| 20260503034010 | 21 | 288 | 0.0 | 0.0 | 0.00 | 0.00 | 0.00 | 48 | 1013.7 |
| 20260503033510 | 21 | 288 | 0.0 | 0.0 | 0.00 | 0.00 | 0.00 | 48 | 1013.5 |
| 20260503033054 | 22 | 288 | 0.0 | 1.6 | 0.00 | 0.00 | 0.00 | 47 | 1013.9 |
| 20260503031551 | 23 | 248 | 0.0 | 3.2 | 0.00 | 0.00 | 0.00 | 43 | 1013.8 |
| 20260503030118 | 23 | 191 | 0.0 | 8.0 | 0.00 | 0.00 | 0.00 | 42 | 1013.8 |
| 20260503024550 | 25 | 212 | 0.0 | 8.0 | 0.00 | 0.00 | 0.00 | 41 | 1013.6 |
| 20260503024010 | 25 | 217 | 1.6 | 4.8 | 0.00 | 0.00 | 0.00 | 39 | 1013.3 |
| 20260503023510 | 26 | 261 | 0.0 | 6.4 | 0.00 | 0.00 | 0.00 | 40 | 1013.2 |
| 20260503023049 | 26 | 238 | 0.0 | 6.4 | 0.00 | 0.00 | 0.00 | 39 | 1013.7 |
| 20260503023023 | 26 | 229 | 0.0 | 6.4 | 0.00 | 0.00 | 0.00 | 39 | 1013.2 |
| 20260503022508 | 26 | 243 | 0.0 | 6.4 | 0.00 | 0.00 | 0.00 | 38 | 1013.3 |
| 20260503022012 | 26 | 274 | 1.6 | 6.4 | 0.00 | 0.00 | 0.00 | 38 | 1013.3 |
| 20260503021550 | 26 | 302 | 0.0 | 3.2 | 0.00 | 0.00 | 0.00 | 39 | 1013.7 |
| 20260503021519 | 26 | 172 | 0.0 | 4.8 | 0.00 | 0.00 | 0.00 | 38 | 1013.3 |
| 20260503020047 | 26 | 281 | 0.0 | 9.7 | 0.00 | 0.00 | 0.00 | 38 | 1013.7 |
| 20260503014601 | 26 | 283 | 1.6 | 16.1 | 0.00 | 0.00 | 0.00 | 37 | 1013.9 |
| 20260503013050 | 26 | 293 | 1.6 | 4.8 | 0.00 | 0.00 | 0.00 | 38 | 1014.0 |
| 20260503012511 | 26 | 275 | 0.0 | 9.7 | 0.00 | 0.00 | 0.00 | 38 | 1013.6 |
| 20260503012009 | 26 | 284 | 1.6 | 12.9 | 0.00 | 0.00 | 0.00 | 38 | 1013.7 |
| 20260503011552 | 26 | 295 | 1.6 | 12.9 | 0.00 | 0.00 | 0.00 | 38 | 1014.1 |
| 20260503011532 | 26 | 275 | 3.2 | 12.9 | 0.00 | 0.00 | 0.00 | 38 | 1013.7 |
| 20260503011010 | 26 | 288 | 4.8 | 12.9 | 0.00 | 0.00 | 0.00 | 37 | 1013.7 |
| 20260503010509 | 26 | 178 | 4.8 | 11.3 | 0.00 | 0.00 | 0.00 | 37 | 1013.8 |
| 20260503010043 | 26 | 275 | 4.8 | 11.3 | 0.00 | 0.00 | 0.00 | 37 | 1014.1 |
| 20260503005014 | 26 | 223 | 3.2 | 14.5 | 0.00 | 0.00 | 0.00 | 37 | 1013.8 |
| 20260503004540 | 26 | 274 | 1.6 | 9.7 | 0.00 | 0.00 | 0.00 | 38 | 1014.2 |
| 20260503003047 | 26 | 215 | 4.8 | 17.7 | 0.00 | 0.00 | 0.00 | 38 | 1014.3 |
| 20260503002506 | 26 | 233 | 4.8 | 17.7 | 0.00 | 0.00 | 0.00 | 38 | 1014.1 |
| 20260503001537 | 26 | 285 | 6.4 | 16.1 | 0.00 | 0.00 | 0.00 | 38 | 1014.5 |
| 20260503001008 | 26 | 300 | 6.4 | 12.9 | 0.00 | 0.00 | 0.00 | 38 | 1014.2 |
| 20260503000036 | 26 | 211 | 4.8 | 14.5 | 0.00 | 0.00 | 0.00 | 42 | 1014.5 |
| 20260503000018 | 26 | 281 | 6.4 | 14.5 | 0.00 | 0.00 | 0.00 | 40 | 1014.2 |
| 20260502235006 | 26 | 215 | 4.8 | 12.9 | 0.00 | 0.00 | 0.00 | 40 | 1014.3 |
| 20260502234534 | 26 | 262 | 3.2 | 11.3 | 0.00 | 0.00 | 0.00 | 39 | 1014.7 |
| 20260502233510 | 26 | 295 | 3.2 | 11.3 | 0.00 | 0.00 | 0.00 | 41 | 1014.3 |
| 20260502233032 | 26 | 290 | 0.0 | 11.3 | 0.00 | 0.00 | 0.00 | 43 | 1014.7 |
| 20260502233007 | 26 | 19 | 0.0 | 11.3 | 0.00 | 0.00 | 0.00 | 42 | 1014.5 |
| 20260502232006 | 26 | 293 | 3.2 | 9.7 | 0.00 | 0.00 | 0.00 | 42 | 1014.5 |
| 20260502231530 | 26 | 251 | 1.6 | 8.0 | 0.00 | 0.00 | 0.00 | 43 | 1014.9 |
| 20260502230027 | 25 | 255 | 4.8 | 11.3 | 0.00 | 0.00 | 0.00 | 43 | 1015.1 |
| 20260502225006 | 26 | 217 | 3.2 | 9.7 | 0.00 | 0.00 | 0.00 | 46 | 1014.8 |
| 20260502224525 | 25 | 288 | 3.2 | 11.3 | 0.00 | 0.00 | 0.00 | 46 | 1015.3 |
| 20260502224521 | 25 | 268 | 4.8 | 12.9 | 0.00 | 0.00 | 0.00 | 45 | 1014.9 |
| 20260502224010 | 25 | 283 | 4.8 | 12.9 | 0.00 | 0.00 | 0.00 | 46 | 1015.0 |
| 20260502223509 | 26 | 213 | 1.6 | 12.9 | 0.00 | 0.00 | 0.00 | 47 | 1015.0 |
| 20260502223023 | 25 | 335 | 4.8 | 12.9 | 0.00 | 0.00 | 0.00 | 48 | 1015.5 |
| 20260502223020 | 25 | 286 | 4.8 | 12.9 | 0.00 | 0.00 | 0.00 | 48 | 1015.1 |
| 20260502222507 | 25 | 262 | 6.4 | 11.3 | 0.00 | 0.00 | 0.00 | 47 | 1015.1 |
| 20260502222007 | 26 | 176 | 6.4 | 12.9 | 0.00 | 0.00 | 0.00 | 46 | 1015.1 |
| 20260502221521 | 26 | 186 | 3.2 | 14.5 | 0.00 | 0.00 | 0.00 | 47 | 1015.6 |
| 20260502221003 | 26 | 284 | 8.0 | 14.5 | 0.00 | 0.00 | 0.00 | 45 | 1015.3 |
| 20260502220023 | 26 | 273 | 8.0 | 12.9 | 0.00 | 0.00 | 0.00 | 45 | 1015.7 |
| 20260502215005 | 26 | 269 | 4.8 | 9.7 | 0.00 | 0.00 | 0.00 | 42 | 1015.3 |
| 20260502214517 | 26 | 264 | 0.0 | 8.0 | 0.00 | 0.00 | 0.00 | 44 | 1016.0 |
| 20260502214006 | 26 | 331 | 1.6 | 8.0 | 0.00 | 0.00 | 0.00 | 43 | 1015.5 |
| 20260502213506 | 26 | 291 | 1.6 | 8.0 | 0.00 | 0.00 | 0.00 | 43 | 1015.6 |
| 20260502213033 | 26 | 264 | 1.6 | 6.4 | 0.00 | 0.00 | 0.00 | 43 | 1016.2 |
| 20260502213027 | 26 | 274 | 3.2 | 6.4 | 0.00 | 0.00 | 0.00 | 43 | 1015.7 |
| 20260502212507 | 26 | 221 | 0.0 | 8.0 | 0.00 | 0.00 | 0.00 | 44 | 1015.7 |
| 20260502212008 | 26 | 277 | 3.2 | 8.0 | 0.00 | 0.00 | 0.00 | 43 | 1015.7 |
| 20260502211525 | 26 | 228 | 1.6 | 12.9 | 0.00 | 0.00 | 0.00 | 46 | 1015.8 |
| 20260502211513 | 26 | 248 | 0.0 | 12.9 | 0.00 | 0.00 | 0.00 | 46 | 1016.2 |
| 20260502211008 | 25 | 280 | 1.6 | 12.9 | 0.00 | 0.00 | 0.00 | 46 | 1015.9 |
| 20260502210511 | 25 | 262 | 3.2 | 9.7 | 0.00 | 0.00 | 0.00 | 46 | 1015.9 |
| 20260502210024 | 25 | 210 | 4.8 | 9.7 | 0.00 | 0.00 | 0.00 | 47 | 1015.9 |
| 20260502210010 | 25 | 209 | 3.2 | 9.7 | 0.00 | 0.00 | 0.00 | 47 | 1016.4 |
| 20260502204508 | 25 | 285 | 0.0 | 14.5 | 0.00 | 0.00 | 0.00 | 47 | 1016.6 |
| 20260502203018 | 24 | 289 | 6.4 | 12.9 | 0.00 | 0.00 | 0.00 | 48 | 1016.2 |
| 20260502203007 | 24 | 312 | 4.8 | 12.9 | 0.00 | 0.00 | 0.00 | 48 | 1016.8 |
| 20260502202508 | 25 | 271 | 4.8 | 9.7 | 0.00 | 0.00 | 0.00 | 46 | 1016.3 |
| 20260502201531 | 23 | 165 | 0.0 | 12.9 | 0.00 | 0.00 | 0.00 | 49 | 1016.4 |
| 20260502201504 | 23 | 165 | 0.0 | 12.9 | 0.00 | 0.00 | 0.00 | 50 | 1016.9 |
| 20260502201010 | 23 | 239 | 4.8 | 12.9 | 0.00 | 0.00 | 0.00 | 49 | 1016.5 |
| 20260502200510 | 23 | 165 | 3.2 | 9.7 | 0.00 | 0.00 | 0.00 | 49 | 1016.5 |
| 20260502200027 | 23 | 281 | 6.4 | 9.7 | 0.00 | 0.00 | 0.00 | 48 | 1016.6 |
| 20260502200003 | 23 | 281 | 4.8 | 9.7 | 0.00 | 0.00 | 0.00 | 48 | 1017.1 |
| 20260502195512 | 23 | 191 | 3.2 | 9.7 | 0.00 | 0.00 | 0.00 | 48 | 1016.6 |
| 20260502195009 | 23 | 177 | 3.2 | 9.7 | 0.00 | 0.00 | 0.00 | 49 | 1016.7 |
| 20260502194601 | 22 | 269 | 3.2 | 9.7 | 0.00 | 0.00 | 0.00 | 49 | 1017.3 |
| 20260502194536 | 22 | 271 | 3.2 | 9.7 | 0.00 | 0.00 | 0.00 | 49 | 1016.7 |
| 20260502194004 | 22 | 266 | 3.2 | 11.3 | 0.00 | 0.00 | 0.00 | 48 | 1016.8 |
| 20260502193100 | 22 | 284 | 3.2 | 11.3 | 0.00 | 0.00 | 0.00 | 49 | 1017.4 |
| 20260502193016 | 22 | 276 | 4.8 | 11.3 | 0.00 | 0.00 | 0.00 | 49 | 1016.9 |
| 20260502192008 | 22 | 275 | 3.2 | 11.3 | 0.00 | 0.00 | 0.00 | 52 | 1017.0 |
| 20260502191601 | 22 | 288 | 3.2 | 11.3 | 0.00 | 0.00 | 0.00 | 53 | 1017.6 |
| 20260502190510 | 22 | 223 | 1.6 | 6.4 | 0.00 | 0.00 | 0.00 | 52 | 1017.2 |
| 20260502190055 | 22 | 214 | 1.6 | 6.4 | 0.00 | 0.00 | 0.00 | 53 | 1017.7 |
| 20260502190022 | 22 | 215 | 1.6 | 6.4 | 0.00 | 0.00 | 0.00 | 54 | 1017.2 |
| 20260502185509 | 21 | 193 | 3.2 | 8.0 | 0.00 | 0.00 | 0.00 | 56 | 1017.2 |
| 20260502185010 | 21 | 288 | 1.6 | 9.7 | 0.00 | 0.00 | 0.00 | 56 | 1017.3 |
| 20260502184552 | 21 | 195 | 0.0 | 11.3 | 0.00 | 0.00 | 0.00 | 60 | 1017.8 |
| 20260502184533 | 21 | 313 | 1.6 | 11.3 | 0.00 | 0.00 | 0.00 | 57 | 1017.3 |
| 20260502184009 | 21 | 215 | 4.8 | 11.3 | 0.00 | 0.00 | 0.00 | 58 | 1017.3 |
| 20260502183514 | 21 | 202 | 1.6 | 8.0 | 0.00 | 0.00 | 0.00 | 58 | 1017.4 |
| 20260502183052 | 21 | 218 | 3.2 | 8.0 | 0.00 | 0.00 | 0.00 | 59 | 1018.0 |
| 20260502183025 | 21 | 283 | 4.8 | 8.0 | 0.00 | 0.00 | 0.00 | 58 | 1017.5 |